Weather History for KCXY - April, 2013

Change the Weather History Date:

Saturday, April 20, 2013

  Actual Average Record
Temperature  
Mean Temperature 50 °F -  
Max Temperature 55 °F 62 °F 92 °F (1941)
Min Temperature 44 °F 41 °F 26 °F (1904)
Degree Days  
Heating Degree Days 15    
Moisture  
Dew Point 28 °F    
Average Humidity 44    
Maximum Humidity 68    
Minimum Humidity 30    
Precipitation  
Precipitation 0.01 in - - ()
Sea Level Pressure  
Sea Level Pressure 30.06 in    
Wind  
Wind Speed 12 mph (WNW)    
Max Wind Speed 20 mph    
Max Gust Speed 29 mph    
Visibility 10 miles    
Events Rain    
Averages and records for this station are not official NWS values.
T = Trace of Precipitation, MM = Missing Value Source: NWS Daily Summary

Daily Weather History Graph

Daily Weather History Graph

Search for Another Location

Airport or City:

Trip Planner

Search our weather history database for the weather conditions in past years. The results will help you decide how hot, cold, wet, or windy it might be!

Date:

Astronomy

Apr. 20, 2013 Rise Set
Actual Time 6:21 AM EDT 7:51 PM EDT
Civil Twilight 5:53 AM EDT 8:20 PM EDT
Nautical Twilight 5:18 AM EDT 8:54 PM EDT
Astronomical Twilight 4:42 AM EDT 9:31 PM EDT
Moon 2:32 PM EDT (4/20) 3:10 AM EDT (4/20)
Length of Visible Light 14h 27m
Length of Day
13h 29m
Waxing Gibbous, 71% of the Moon is Illuminated
Apr 20
Waxing Gibbous
Apr 25
Full
May 2
Last Quarter
May 9
New
May 18
First Quarter

Hourly Weather History & Observations

Time (EDT) Temp. Windchill Dew Point Humidity Pressure Visibility Wind Dir Wind Speed Gust Speed Precip Events Conditions
12:56 AM 51.1 °F - 41.0 °F 68% 29.81 in 10.0 mi WNW 6.9 mph - 0.01 in   Overcast
1:56 AM 51.1 °F - 37.0 °F 59% 29.81 in 10.0 mi WNW 10.4 mph - 0.00 in Rain Light Rain
2:56 AM 50.0 °F - 34.0 °F 54% 29.83 in 10.0 mi WNW 18.4 mph 24.2 mph 0.00 in   Overcast
3:56 AM 48.0 °F - 34.0 °F 58% 29.86 in 10.0 mi WNW 6.9 mph - N/A   Mostly Cloudy
4:56 AM 48.0 °F - 34.0 °F 58% 29.90 in 10.0 mi West 6.9 mph - N/A   Overcast
5:56 AM 46.9 °F - 30.0 °F 52% 29.92 in 10.0 mi West 15.0 mph 21.9 mph N/A   Clear
6:56 AM 45.0 °F 39.3 °F 32.0 °F 60% 29.96 in 10.0 mi West 11.5 mph 21.9 mph N/A   Partly Cloudy
7:56 AM 45.0 °F 40.1 °F 28.9 °F 53% 29.99 in 10.0 mi West 9.2 mph - N/A   Clear
8:56 AM 46.9 °F - 27.0 °F 46% 30.00 in 10.0 mi West 15.0 mph 23.0 mph N/A   Partly Cloudy
9:56 AM 48.9 °F - 28.0 °F 44% 30.02 in 10.0 mi West 15.0 mph 23.0 mph N/A   Mostly Cloudy
10:56 AM 48.9 °F - 27.0 °F 43% 30.05 in 10.0 mi West 10.4 mph 23.0 mph N/A   Overcast
11:56 AM 52.0 °F - 28.0 °F 40% 30.06 in 10.0 mi West 12.7 mph 21.9 mph N/A   Scattered Clouds
12:56 PM 54.0 °F - 30.9 °F 41% 30.06 in 10.0 mi WSW 17.3 mph 25.3 mph N/A   Mostly Cloudy
1:56 PM 55.0 °F - 27.0 °F 34% 30.06 in 10.0 mi West 18.4 mph 28.8 mph N/A   Partly Cloudy
2:56 PM 54.0 °F - 26.1 °F 34% 30.07 in 10.0 mi West 11.5 mph 23.0 mph N/A   Scattered Clouds
3:56 PM 53.1 °F - 24.1 °F 32% 30.10 in 10.0 mi WNW 13.8 mph 25.3 mph N/A   Partly Cloudy
4:56 PM 54.0 °F - 24.1 °F 31% 30.13 in 10.0 mi NW 19.6 mph 28.8 mph N/A   Scattered Clouds
5:56 PM 52.0 °F - 23.0 °F 32% 30.16 in 10.0 mi NW 15.0 mph 24.2 mph N/A   Partly Cloudy
6:56 PM 52.0 °F - 21.0 °F 30% 30.19 in 10.0 mi NW 15.0 mph - N/A   Mostly Cloudy
7:56 PM 50.0 °F - 21.9 °F 33% 30.24 in 10.0 mi NW 11.5 mph - N/A   Clear
8:56 PM 48.0 °F - 23.0 °F 37% 30.27 in 10.0 mi NW 12.7 mph - N/A   Clear
9:56 PM 46.9 °F - 21.9 °F 37% 30.33 in 10.0 mi NW 10.4 mph - N/A   Clear
10:56 PM 45.0 °F 41.2 °F 21.9 °F 40% 30.35 in 10.0 mi WNW 6.9 mph - N/A   Clear
11:56 PM 44.1 °F 39.0 °F 21.9 °F 42% 30.37 in 10.0 mi NW 9.2 mph - N/A   Clear